Location: Newark
(33.6333°S, 78.8500°W)
Time: 04:22:17
(UTC+00:00)

Vanguard 3 - All Passes

Search period start: 22 September 2019 00:00
Search period end: 02 October 2019 00:00
Orbit: 508 x 3263 km, 33.4° (Epoch: 21 September)

Date Brightness Start Highest point End Pass type
(mag) Time Alt. Az. Time Alt. Az. Time Alt. Az.
22 Sep - 01:35:29 10° WNW 01:40:52 64° NNE 01:44:43 10° E visible
22 Sep - 03:48:16 10° W 03:52:10 85° N 03:56:00 10° E night (unlit)
22 Sep - 05:59:51 10° W 06:03:22 34° NNW 06:08:00 10° NE night (unlit)
22 Sep - 08:14:08 10° NW 08:15:18 11° NNW 08:16:33 10° NNW visible
22 Sep - 22:08:27 10° NNW 22:14:45 19° NNE 22:19:19 10° ENE daylight
23 Sep - 00:20:26 10° NW 00:27:11 46° NNE 00:31:29 10° E visible
23 Sep - 02:33:59 10° W 02:38:41 87° N 02:42:24 10° E visible
23 Sep - 04:46:16 10° W 04:49:53 54° NNW 04:53:58 10° ENE night (unlit)
23 Sep - 06:58:30 10° WNW 07:01:16 16° NNW 07:04:41 10° NNE night (unlit)
23 Sep - 20:55:26 10° N 21:00:00 13° NNE 21:03:45 10° NE daylight
23 Sep - 23:05:13 10° NW 23:13:11 34° NNE 23:18:10 10° E daylight
24 Sep - 01:19:01 10° WNW 01:25:06 74° N 01:29:08 10° E visible
24 Sep - 03:32:21 10° W 03:36:28 79° N 03:40:11 10° ENE night (unlit)
24 Sep - 05:44:23 10° W 05:47:34 26° NNW 05:51:23 10° NE night (unlit)
24 Sep - 21:50:10 10° NNW 21:58:45 26° NNE 22:04:24 10° ENE daylight
25 Sep - 00:03:31 10° WNW 00:11:19 57° NNE 00:16:01 10° E visible
25 Sep - 02:17:47 10° W 02:22:57 89° N 02:26:44 10° E visible
25 Sep - 04:30:31 10° W 04:34:08 44° NNW 04:37:52 10° NE night (unlit)
25 Sep - 06:44:22 10° NW 06:45:25 11° NNW 06:46:31 10° N night (unlit)
25 Sep - 20:35:51 10° N 20:43:51 19° NNE 20:49:43 10° ENE daylight
25 Sep - 22:47:44 10° NW 22:57:12 43° NNE 23:02:47 10° E daylight
26 Sep - 01:02:29 10° WNW 01:09:18 81° N 01:13:35 10° E visible
26 Sep - 03:16:20 10° W 03:20:45 71° NNW 03:24:25 10° ENE visible
26 Sep - 05:29:02 10° WNW 05:31:45 19° NNW 05:34:44 10° NNE night (unlit)
26 Sep - 19:23:40 10° N 19:28:32 12° NNE 19:32:42 10° NE daylight
26 Sep - 21:32:04 10° NW 21:42:38 33° NNE 21:49:12 10° E daylight
26 Sep - 23:46:32 10° WNW 23:55:24 66° NNE 00:00:30 10° E visible
27 Sep - 02:01:29 10° W 02:07:13 88° N 02:11:08 10° E visible
27 Sep - 04:14:42 10° W 04:18:22 35° NNW 04:21:49 10° NE night (unlit)
27 Sep - 20:16:57 10° NNW 20:27:37 25° NNE 20:34:53 10° ENE daylight
27 Sep - 22:30:15 10° NW 22:41:09 52° NNE 22:47:18 10° E daylight
28 Sep - 00:45:50 10° W 00:53:27 86° N 00:58:01 10° E visible
28 Sep - 03:00:12 10° W 03:05:00 63° NNW 03:08:41 10° ENE visible
28 Sep - 05:13:51 10° WNW 05:15:51 14° NNW 05:17:56 10° N night (unlit)
28 Sep - 19:03:11 10° N 19:12:09 17° NNE 19:19:08 10° ENE daylight
28 Sep - 21:14:02 10° NW 21:26:26 41° NNE 21:33:48 10° E daylight
28 Sep - 23:29:29 10° WNW 23:39:25 75° NNE 23:44:57 10° E visible
29 Sep - 01:45:04 10° W 01:51:26 85° N 01:55:33 10° E visible
29 Sep - 03:58:52 10° W 04:02:31 29° NNW 04:05:45 10° NE night (unlit)
29 Sep - 17:54:55 10° NNE 17:56:18 10° NE 17:57:39 10° NE daylight
29 Sep - 19:58:21 10° NNW 20:11:15 31° NNE 20:19:40 10° E daylight
29 Sep - 22:12:45 10° WNW 22:25:00 61° NNE 22:31:45 10° E daylight
30 Sep - 00:29:06 10° W 00:37:34 88° N 00:42:28 10° E visible
30 Sep - 02:43:59 10° W 02:49:12 56° NNW 02:52:57 10° ENE visible
30 Sep - 18:43:47 10° N 18:55:37 23° NNE 19:04:25 10° ENE daylight
30 Sep - 20:56:05 10° NW 21:10:06 49° NNE 21:18:15 10° E daylight
30 Sep - 23:12:22 10° WNW 23:23:22 81° N 23:29:23 10° E daylight
01 Oct - 01:28:30 10° W 01:35:37 81° N 01:39:58 10° ENE visible
01 Oct - 03:42:58 10° W 03:46:38 24° NNW 03:49:41 10° NNE night (unlit)
01 Oct - 17:31:37 10° N 17:39:41 14° NE 17:46:38 10° ENE daylight
01 Oct - 19:39:57 10° NNW 19:54:43 38° NNE 20:04:13 10° E daylight
01 Oct - 21:55:14 10° WNW 22:08:46 69° NNE 22:16:09 10° E daylight
